STARLINK-2498, 48326

Orbit data source: Space-Track

STARLINK-2498, 48326 is a payload satellite owned by SpaceX/Seattle (US) in LEO that was launched on Thu, 29 Apr 2021 UTC via an FALCON 9 launch vehicle from the Air Force Eastern Test Range (AFETR). Payload-class satellites include a variety of spacecraft equipped with specific instruments for various scientific and technological missions. These include communications satellites like Starlink; space stations such as the ISS; scientific satellites like the Hubble; Earth observation satellites from companies like Planet Labs, Umbra, and HawkEye 360; GPS; miniature CubeSats for education and research; and military/defense satellites.

Loading next visibility...
Identifier
48326, 2021-036BC
Orbit
LEO
Country
Flag of USUS
Related business
Manufacturer
SpaceX/Seattle
Mission
Operational Commercial Communications
Bus & Motor
STARLINK, Unknown motor
Mass
260 kg wet, ~248 kg dry
Launch date (UTC)
2021-04-29 (4 years ago)
Launch vehicle
FALCON 9
Launch site
Air Force Eastern Test Range (AFETR)
Object type
Payload
Rocket body
Debris
Shape & HBR
Box + 1 Pan, 10.1 m
Radar Cross Section
13.562 m², Large (>1 m²)

Expand to show TLE details & history
Last TLE update: 6 hours ago

TLE from 6 hours ago
0 STARLINK-2498
1 48326U 21036BC  25296.55715192  .00009973  00000-0  68707-3 0  9993
2 48326  53.0562 357.2324 0001618 114.8450 245.2708 15.06422813247363
Epoch: 2025-10-23T13:22Z
TLE epoch observation values (Epoch: 2025-10-23T13:22:17.925Z)
Latitude
0.00001°
Longitude
124.44302°
Altitude
548.49 km
Speed
7.589 km/s
True Right ascension
23h 48m 55s
True Declination
0° 00' 00"
Sunlit
Object was in full shadow at epoch
Visualization orbit readout
Latitude
Unknown
Longitude
Unknown
Altitude
Unknown
Speed
Unknown
Apparent Right ascension
Unknown
Apparent Declination
Unknown
Sunlit
N/A
Visualization observer readout
Local Sidereal Time
15:00:51
Azimuth
Unknown
Elevation
Unknown
Doppler factor
Unknown
Orbital elements
Apogee altitude
548.533 km
Perigee altitude
546.292 km
Semi-major axis
6,925.549 km
Eccentricity
0.00016
Inclination
53.0562°
RAAN
357.2324°
Arg. of periapsis
114.845°
True anomaly
245.25396°
Mean anomaly
245.2708°
Eccentric anomaly
245.26238°
Mean motion
3.76584 °/min
Orbital period
95.6 mins
BSTAR
0.00068707
Loading maneuver chart data...
Computing Atmospheric mass density...
Loading historical data...
Loading historical data...
Loading historical data...
Loading historical data...
Loading historical data...
Loading historical data...
Loading historical data...

Documentation

Showing up to 5 results
|